QPF
0.01 0.00 0.00 0.00 0.00 0.00 0.00 0.00 0.00 0.01 0.01 0.02 0.02 0.02 0.02 0.02 0.01 0.01 0.01 0.01 0.01 0.02 0.02 0.02 0.01 0.01 0.00 0.00 0.01 0.01 0.00 0.00 0.00 0.00 0.00 0.00 0.01 0.01 0.00 0.00 0.00 0.00 0.01
0.00 0.00 0.00 0.00 0.00 0.00 0.00 0.00 0.01 0.01 0.01 0.01 0.02 0.02 0.02 0.01 0.01 0.01 0.01 0.01 0.02 0.02 0.03 0.02 0.02 0.01 0.01 0.00 0.01 0.01 0.01 0.00 0.00 0.00 0.00 0.01 0.01 0.01 0.01 0.00 0.01 0.01 0.00
0.01 0.01 0.01 0.00 0.01 0.00 0.00 0.01 0.01 0.02 0.02 0.02 0.03 0.02 0.02 0.01 0.01 0.02 0.01 0.01 0.01 0.02 0.03 0.02 0.02 0.02 0.02 0.02 0.01 0.01 0.01 0.01 0.01 0.01 0.01 0.01 0.01 0.01 0.01 0.01 0.01 0.01 0.00
0.02 0.02 0.03 0.02 0.02 0.01 0.01 0.01 0.02 0.02 0.03 0.03 0.04 0.04 0.03 0.01 0.01 0.02 0.01 0.01 0.01 0.01 0.02 0.03 0.03 0.02 0.03 0.03 0.03 0.02 0.02 0.01 0.01 0.01 0.02 0.01 0.01 0.01 0.01 0.01 0.01 0.01 0.01
0.02 0.02 0.03 0.02 0.01 0.01 0.02 0.01 0.01 0.01 0.02 0.03 0.04 0.04 0.03 0.02 0.02 0.02 0.01 0.01 0.01 0.02 0.01 0.02 0.03 0.03 0.03 0.04 0.04 0.04 0.04 0.05 0.04 0.03 0.02 0.01 0.01 0.01 0.01 0.01 0.01 0.01 0.01
0.02 0.02 0.03 0.02 0.01 0.01 0.02 0.01 0.01 0.02 0.02 0.03 0.04 0.04 0.03 0.03 0.02 0.02 0.03 0.03 0.03 0.02 0.01 0.01 0.01 0.02 0.03 0.04 0.04 0.05 0.05 0.05 0.05 0.03 0.03 0.02 0.02 0.02 0.01 0.01 0.01 0.02 0.01
0.03 0.04 0.04 0.04 0.03 0.03 0.04 0.03 0.03 0.04 0.03 0.03 0.03 0.04 0.04 0.03 0.04 0.03 0.03 0.04 0.03 0.02 0.02 0.01 0.01 0.01 0.01 0.02 0.03 0.04 0.06 0.06 0.05 0.04 0.03 0.03 0.02 0.02 0.01 0.01 0.02 0.02 0.01
0.06 0.06 0.05 0.04 0.05 0.05 0.04 0.04 0.04 0.03 0.03 0.02 0.03 0.08 0.07 0.05 0.05 0.03 0.02 0.03 0.03 0.03 0.02 0.02 0.02 0.01 0.02 0.01 0.01 0.02 0.04 0.06 0.07 0.06 0.05 0.04 0.03 0.02 0.02 0.02 0.01 0.01 0.01
0.06 0.05 0.06 0.06 0.07 0.08 0.06 0.04 0.03 0.03 0.04 0.04 0.04 0.06 0.04 0.01 0.02 0.02 0.02 0.02 0.02 0.04 0.05 0.03 0.03 0.02 0.02 0.02 0.01 0.01 0.02 0.04 0.06 0.08 0.08 0.06 0.04 0.03 0.02 0.02 0.02 0.01 0.02
0.08 0.06 0.07 0.07 0.06 0.06 0.05 0.04 0.01 0.01 0.03 0.03 0.03 0.03 0.02 0.01 0.01 0.01 0.01 0.01 0.01 0.02 0.02 0.02 0.02 0.02 0.03 0.04 0.04 0.02 0.02 0.03 0.05 0.07 0.09 0.08 0.06 0.04 0.03 0.02 0.02 0.02 0.02
0.08 0.08 0.07 0.07 0.07 0.06 0.03 0.03 0.02 0.02 0.02 0.02 0.02 0.03 0.02 0.02 0.01 0.01 0.01 0.01 0.01 0.01 0.01 0.01 0.01 0.02 0.02 0.03 0.05 0.05 0.04 0.03 0.03 0.04 0.05 0.06 0.06 0.05 0.04 0.03 0.02 0.01 0.02
0.07 0.06 0.07 0.06 0.07 0.06 0.05 0.06 0.06 0.05 0.03 0.02 0.03 0.02 0.03 0.03 0.03 0.03 0.01 0.00 0.01 0.01 0.00 0.00 0.00 0.01 0.01 0.01 0.02 0.03 0.04 0.03 0.03 0.02 0.02 0.03 0.04 0.03 0.03 0.03 0.02 0.02 0.02
0.05 0.06 0.09 0.07 0.07 0.08 0.07 0.07 0.07 0.06 0.05 0.04 0.04 0.04 0.03 0.03 0.03 0.03 0.02 0.01 0.00 0.01 0.01 0.00 0.00 0.00 0.00 0.01 0.01 0.02 0.03 0.03 0.03 0.02 0.02 0.02 0.02 0.03 0.04 0.04 0.04 0.04 0.04
0.06 0.08 0.12 0.11 0.09 0.10 0.08 0.09 0.08 0.08 0.08 0.06 0.03 0.04 0.03 0.03 0.04 0.03 0.03 0.02 0.01 0.01 0.01 0.01 0.01 0.00 0.00 0.01 0.02 0.03 0.02 0.02 0.02 0.02 0.02 0.02 0.02 0.03 0.04 0.04 0.04 0.05 0.04
0.09 0.09 0.11 0.12 0.11 0.11 0.12 0.13 0.11 0.10 0.09 0.06 0.05 0.05 0.04 0.04 0.05 0.04 0.04 0.04 0.03 0.02 0.01 0.01 0.01 0.01 0.01 0.01 0.02 0.01 0.01 0.02 0.02 0.02 0.03 0.02 0.02 0.02 0.02 0.03 0.02 0.02 0.02
0.10 0.10 0.10 0.10 0.09 0.11 0.15 0.16 0.12 0.10 0.09 0.09 0.09 0.08 0.05 0.04 0.04 0.05 0.05 0.05 0.05 0.04 0.02 0.01 0.01 0.01 0.02 0.02 0.02 0.02 0.02 0.02 0.03 0.04 0.04 0.03 0.03 0.03 0.03 0.03 0.02 0.02 0.02
0.06 0.07 0.09 0.11 0.08 0.10 0.12 0.12 0.11 0.11 0.11 0.10 0.08 0.07 0.05 0.05 0.04 0.05 0.06 0.06 0.06 0.05 0.03 0.01 0.01 0.02 0.02 0.03 0.03 0.03 0.03 0.02 0.03 0.03 0.04 0.04 0.04 0.04 0.04 0.03 0.03 0.02 0.02
0.04 0.05 0.09 0.12 0.10 0.10 0.12 0.14 0.13 0.12 0.12 0.11 0.09 0.08 0.06 0.06 0.05 0.05 0.05 0.05 0.06 0.05 0.05 0.03 0.02 0.03 0.03 0.04 0.03 0.03 0.03 0.03 0.02 0.03 0.03 0.03 0.03 0.03 0.03 0.04 0.04 0.04 0.03
0.06 0.06 0.08 0.10 0.11 0.11 0.12 0.11 0.10 0.09 0.09 0.09 0.10 0.10 0.09 0.09 0.08 0.08 0.07 0.07 0.07 0.06 0.05 0.03 0.03 0.04 0.04 0.04 0.04 0.04 0.04 0.04 0.03 0.03 0.03 0.03 0.03 0.03 0.04 0.04 0.03 0.04 0.04
0.09 0.10 0.11 0.10 0.10 0.11 0.10 0.10 0.10 0.08 0.08 0.10 0.12 0.15 0.17 0.17 0.14 0.12 0.10 0.08 0.08 0.07 0.06 0.05 0.05 0.05 0.05 0.04 0.04 0.05 0.05 0.04 0.05 0.04 0.05 0.05 0.06 0.06 0.07 0.06 0.06 0.05 0.05
0.09 0.08 0.10 0.09 0.06 0.07 0.08 0.08 0.07 0.07 0.08 0.08 0.10 0.11 0.12 0.14 0.13 0.12 0.10 0.09 0.10 0.09 0.09 0.08 0.07 0.07 0.06 0.06 0.06 0.07 0.07 0.08 0.08 0.07 0.07 0.07 0.07 0.07 0.08 0.10 0.10 0.09 0.08
0.09 0.09 0.08 0.08 0.07 0.05 0.05 0.07 0.09 0.11 0.11 0.10 0.08 0.07 0.08 0.09 0.09 0.10 0.12 0.12 0.12 0.11 0.10 0.09 0.08 0.08 0.08 0.08 0.08 0.08 0.08 0.07 0.07 0.07 0.06 0.06 0.06 0.07 0.08 0.09 0.11 0.11 0.11
0.09 0.09 0.08 0.08 0.08 0.06 0.06 0.08 0.09 0.08 0.09 0.08 0.08 0.07 0.07 0.08 0.08 0.09 0.09 0.09 0.09 0.09 0.08 0.07 0.06 0.06 0.06 0.06 0.06 0.07 0.07 0.07 0.07 0.07 0.06 0.06 0.05 0.05 0.05 0.06 0.08 0.08 0.08
0.12 0.12 0.10 0.09 0.09 0.09 0.09 0.09 0.10 0.10 0.10 0.09 0.08 0.08 0.09 0.10 0.11 0.12 0.11 0.09 0.07 0.07 0.09 0.09 0.07 0.07 0.08 0.07 0.07 0.06 0.05 0.05 0.05 0.04 0.03 0.03 0.03 0.04 0.04 0.04 0.05 0.05 0.04
0.12 0.13 0.12 0.10 0.07 0.07 0.08 0.08 0.09 0.08 0.07 0.07 0.07 0.07 0.08 0.08 0.10 0.11 0.10 0.10 0.10 0.09 0.10 0.11 0.10 0.09 0.09 0.08 0.06 0.05 0.04 0.04 0.04 0.04 0.04 0.03 0.03 0.02 0.03 0.03 0.03 0.03 0.02
0.10 0.09 0.08 0.06 0.06 0.08 0.10 0.10 0.11 0.11 0.10 0.09 0.08 0.08 0.09 0.09 0.10 0.11 0.10 0.11 0.13 0.14 0.14 0.14 0.15 0.14 0.11 0.09 0.08 0.06 0.06 0.06 0.05 0.05 0.05 0.04 0.03 0.03 0.03 0.03 0.02 0.02 0.01
MSLP
1018.53 1018.70 1018.82 1018.90 1018.96 1019.03 1019.12 1019.25 1019.41 1019.59 1019.76 1019.92 1020.06 1020.18 1020.28 1020.38 1020.50 1020.64 1020.79 1020.97 1021.15 1021.33 1021.49 1021.64 1021.77 1021.88 1021.98 1022.09 1022.19 1022.29 1022.40 1022.51 1022.63 1022.76 1022.90 1023.05 1023.22 1023.40 1023.59 1023.78 1023.96 1024.12 1024.26
1018.56 1018.74 1018.86 1018.93 1018.99 1019.06 1019.15 1019.27 1019.43 1019.62 1019.82 1020.02 1020.20 1020.36 1020.49 1020.62 1020.73 1020.84 1020.96 1021.10 1021.24 1021.39 1021.54 1021.69 1021.83 1021.96 1022.08 1022.19 1022.29 1022.38 1022.47 1022.56 1022.66 1022.78 1022.92 1023.08 1023.27 1023.47 1023.68 1023.87 1024.05 1024.20 1024.33
1018.46 1018.65 1018.79 1018.89 1018.97 1019.05 1019.16 1019.29 1019.46 1019.67 1019.89 1020.12 1020.34 1020.54 1020.71 1020.84 1020.95 1021.05 1021.13 1021.22 1021.32 1021.42 1021.55 1021.68 1021.83 1021.97 1022.11 1022.24 1022.35 1022.44 1022.52 1022.60 1022.69 1022.80 1022.94 1023.11 1023.30 1023.51 1023.72 1023.91 1024.09 1024.23 1024.35
1018.25 1018.45 1018.63 1018.78 1018.90 1019.02 1019.16 1019.31 1019.50 1019.72 1019.96 1020.21 1020.46 1020.68 1020.88 1021.03 1021.14 1021.22 1021.27 1021.31 1021.36 1021.42 1021.51 1021.63 1021.77 1021.92 1022.07 1022.22 1022.34 1022.45 1022.54 1022.62 1022.71 1022.82 1022.95 1023.10 1023.29 1023.49 1023.70 1023.89 1024.05 1024.19 1024.30
1017.91 1018.15 1018.37 1018.58 1018.77 1018.95 1019.14 1019.33 1019.53 1019.76 1020.01 1020.27 1020.52 1020.76 1020.97 1021.13 1021.25 1021.31 1021.34 1021.34 1021.35 1021.37 1021.42 1021.50 1021.63 1021.78 1021.95 1022.11 1022.26 1022.39 1022.50 1022.60 1022.69 1022.79 1022.91 1023.06 1023.23 1023.41 1023.60 1023.77 1023.93 1024.06 1024.16
1017.49 1017.75 1018.03 1018.30 1018.57 1018.83 1019.07 1019.30 1019.53 1019.76 1020.00 1020.25 1020.51 1020.75 1020.96 1021.13 1021.25 1021.31 1021.32 1021.30 1021.27 1021.25 1021.26 1021.31 1021.41 1021.55 1021.72 1021.90 1022.07 1022.23 1022.36 1022.48 1022.58 1022.69 1022.80 1022.93 1023.08 1023.25 1023.41 1023.57 1023.72 1023.84 1023.95
1017.01 1017.28 1017.60 1017.94 1018.29 1018.62 1018.92 1019.20 1019.44 1019.68 1019.92 1020.15 1020.39 1020.63 1020.84 1021.02 1021.15 1021.21 1021.22 1021.18 1021.13 1021.07 1021.04 1021.05 1021.12 1021.23 1021.39 1021.57 1021.76 1021.93 1022.09 1022.24 1022.36 1022.47 1022.59 1022.71 1022.85 1022.99 1023.14 1023.29 1023.43 1023.55 1023.67
1016.47 1016.74 1017.09 1017.48 1017.90 1018.30 1018.66 1018.98 1019.25 1019.49 1019.72 1019.95 1020.18 1020.41 1020.63 1020.81 1020.96 1021.03 1021.05 1021.01 1020.93 1020.84 1020.77 1020.73 1020.75 1020.83 1020.95 1021.12 1021.31 1021.50 1021.68 1021.85 1022.00 1022.13 1022.26 1022.39 1022.52 1022.65 1022.79 1022.93 1023.07 1023.20 1023.34
1015.89 1016.14 1016.49 1016.91 1017.37 1017.83 1018.24 1018.60 1018.91 1019.17 1019.40 1019.62 1019.85 1020.09 1020.32 1020.53 1020.69 1020.79 1020.83 1020.79 1020.70 1020.59 1020.47 1020.38 1020.34 1020.36 1020.44 1020.57 1020.74 1020.93 1021.12 1021.31 1021.49 1021.66 1021.81 1021.95 1022.09 1022.23 1022.37 1022.51 1022.66 1022.80 1022.95
1015.28 1015.48 1015.80 1016.23 1016.71 1017.20 1017.65 1018.06 1018.40 1018.68 1018.94 1019.18 1019.42 1019.68 1019.93 1020.17 1020.37 1020.50 1020.56 1020.54 1020.45 1020.31 1020.16 1020.01 1019.91 1019.86 1019.88 1019.96 1020.10 1020.27 1020.46 1020.67 1020.87 1021.06 1021.25 1021.42 1021.58 1021.73 1021.88 1022.03 1022.18 1022.34 1022.50
1014.65 1014.77 1015.05 1015.44 1015.91 1016.42 1016.90 1017.34 1017.72 1018.04 1018.33 1018.61 1018.89 1019.17 1019.46 1019.74 1019.98 1020.15 1020.24 1020.25 1020.17 1020.02 1019.84 1019.65 1019.49 1019.37 1019.33 1019.35 1019.43 1019.57 1019.75 1019.96 1020.18 1020.39 1020.61 1020.81 1020.99 1021.17 1021.33 1021.49 1021.65 1021.81 1021.98
1014.02 1014.05 1014.25 1014.59 1015.03 1015.52 1016.01 1016.47 1016.89 1017.26 1017.60 1017.92 1018.25 1018.58 1018.91 1019.23 1019.51 1019.72 1019.85 1019.88 1019.83 1019.69 1019.50 1019.29 1019.08 1018.92 1018.81 1018.77 1018.80 1018.90 1019.05 1019.24 1019.46 1019.69 1019.92 1020.14 1020.35 1020.54 1020.72 1020.88 1021.04 1021.20 1021.36
1013.42 1013.36 1013.47 1013.73 1014.11 1014.56 1015.04 1015.52 1015.97 1016.38 1016.77 1017.14 1017.51 1017.88 1018.25 1018.60 1018.92 1019.18 1019.35 1019.42 1019.40 1019.30 1019.13 1018.92 1018.71 1018.51 1018.37 1018.28 1018.26 1018.31 1018.41 1018.57 1018.77 1018.99 1019.22 1019.45 1019.67 1019.87 1020.05 1020.22 1020.36 1020.51 1020.65
1012.91 1012.76 1012.77 1012.94 1013.24 1013.64 1014.09 1014.55 1015.01 1015.45 1015.87 1016.28 1016.69 1017.09 1017.49 1017.87 1018.21 1018.49 1018.71 1018.83 1018.86 1018.81 1018.69 1018.53 1018.34 1018.16 1018.00 1017.89 1017.82 1017.82 1017.88 1017.99 1018.15 1018.34 1018.55 1018.77 1018.99 1019.18 1019.35 1019.50 1019.63 1019.75 1019.86
1012.57 1012.33 1012.25 1012.32 1012.53 1012.84 1013.23 1013.67 1014.11 1014.55 1014.99 1015.41 1015.83 1016.24 1016.64 1017.03 1017.38 1017.68 1017.93 1018.10 1018.20 1018.23 1018.19 1018.11 1017.98 1017.85 1017.71 1017.59 1017.51 1017.46 1017.47 1017.52 1017.63 1017.77 1017.95 1018.13 1018.32 1018.50 1018.65 1018.78 1018.89 1018.98 1019.06
1012.45 1012.15 1011.97 1011.94 1012.05 1012.27 1012.59 1012.96 1013.36 1013.78 1014.20 1014.61 1015.01 1015.40 1015.78 1016.14 1016.48 1016.78 1017.05 1017.28 1017.45 1017.57 1017.63 1017.65 1017.63 1017.57 1017.49 1017.39 1017.30 1017.23 1017.19 1017.18 1017.22 1017.31 1017.43 1017.57 1017.73 1017.88 1018.01 1018.11 1018.19 1018.25 1018.30
1012.63 1012.27 1012.02 1011.89 1011.90 1012.02 1012.23 1012.52 1012.86 1013.22 1013.58 1013.95 1014.30 1014.64 1014.97 1015.29 1015.60 1015.89 1016.17 1016.43 1016.67 1016.89 1017.07 1017.21 1017.30 1017.34 1017.33 1017.28 1017.21 1017.12 1017.03 1016.97 1016.95 1016.97 1017.03 1017.13 1017.24 1017.36 1017.47 1017.56 1017.61 1017.65 1017.67
1013.09 1012.70 1012.39 1012.18 1012.09 1012.10 1012.22 1012.41 1012.66 1012.94 1013.23 1013.53 1013.81 1014.09 1014.35 1014.60 1014.86 1015.12 1015.40 1015.69 1015.99 1016.28 1016.57 1016.82 1017.03 1017.17 1017.25 1017.25 1017.20 1017.11 1017.00 1016.89 1016.81 1016.77 1016.78 1016.83 1016.91 1017.00 1017.09 1017.17 1017.21 1017.24 1017.24
1013.82 1013.41 1013.06 1012.79 1012.61 1012.53 1012.55 1012.64 1012.80 1012.99 1013.20 1013.42 1013.63 1013.82 1014.01 1014.20 1014.40 1014.62 1014.88 1015.17 1015.50 1015.86 1016.23 1016.57 1016.88 1017.11 1017.26 1017.32 1017.29 1017.20 1017.07 1016.93 1016.81 1016.72 1016.69 1016.70 1016.76 1016.83 1016.92 1016.98 1017.02 1017.04 1017.02
1014.76 1014.35 1013.98 1013.67 1013.43 1013.27 1013.20 1013.21 1013.27 1013.38 1013.52 1013.66 1013.79 1013.92 1014.04 1014.16 1014.31 1014.48 1014.71 1014.99 1015.34 1015.72 1016.13 1016.53 1016.90 1017.19 1017.39 1017.48 1017.48 1017.40 1017.26 1017.09 1016.94 1016.82 1016.76 1016.75 1016.79 1016.86 1016.94 1017.00 1017.04 1017.05 1017.02
1015.82 1015.44 1015.08 1014.75 1014.47 1014.26 1014.13 1014.06 1014.05 1014.10 1014.17 1014.25 1014.33 1014.41 1014.48 1014.55 1014.64 1014.78 1014.97 1015.22 1015.54 1015.92 1016.33 1016.75 1017.13 1017.44 1017.66 1017.77 1017.78 1017.69 1017.55 1017.37 1017.20 1017.07 1016.99 1016.97 1017.00 1017.06 1017.14 1017.20 1017.23 1017.23 1017.18
1016.92 1016.60 1016.26 1015.94 1015.66 1015.42 1015.25 1015.14 1015.08 1015.08 1015.11 1015.16 1015.21 1015.25 1015.30 1015.34 1015.40 1015.50 1015.65 1015.86 1016.14 1016.48 1016.85 1017.23 1017.59 1017.88 1018.08 1018.18 1018.18 1018.09 1017.94 1017.76 1017.58 1017.44 1017.35 1017.33 1017.35 1017.40 1017.47 1017.52 1017.54 1017.51 1017.43
1018.02 1017.76 1017.47 1017.19 1016.92 1016.68 1016.49 1016.36 1016.29 1016.26 1016.27 1016.31 1016.35 1016.39 1016.43 1016.46 1016.50 1016.57 1016.68 1016.85 1017.07 1017.34 1017.64 1017.95 1018.24 1018.48 1018.63 1018.70 1018.68 1018.57 1018.41 1018.23 1018.05 1017.91 1017.82 1017.78 1017.79 1017.83 1017.87 1017.89 1017.88 1017.82 1017.70
1019.07 1018.88 1018.66 1018.43 1018.19 1017.98 1017.80 1017.67 1017.59 1017.56 1017.57 1017.61 1017.66 1017.72 1017.76 1017.80 1017.84 1017.89 1017.96 1018.07 1018.22 1018.41 1018.62 1018.84 1019.04 1019.20 1019.29 1019.30 1019.24 1019.12 1018.95 1018.76 1018.58 1018.43 1018.33 1018.28 1018.26 1018.27 1018.28 1018.26 1018.20 1018.09 1017.92
1020.07 1019.96 1019.82 1019.64 1019.45 1019.27 1019.11 1018.99 1018.92 1018.90 1018.92 1018.97 1019.03 1019.10 1019.17 1019.22 1019.26 1019.29 1019.33 1019.39 1019.46 1019.56 1019.68 1019.80 1019.90 1019.97 1019.98 1019.94 1019.84 1019.69 1019.50 1019.31 1019.13 1018.97 1018.86 1018.78 1018.73 1018.69 1018.64 1018.57 1018.45 1018.28 1018.06
1021.04 1021.01 1020.93 1020.81 1020.67 1020.52 1020.39 1020.28 1020.22 1020.20 1020.23 1020.29 1020.37 1020.45 1020.53 1020.59 1020.63 1020.65 1020.66 1020.67 1020.68 1020.70 1020.72 1020.74 1020.75 1020.73 1020.67 1020.57 1020.42 1020.25 1020.05 1019.85 1019.65 1019.49 1019.35 1019.23 1019.14 1019.04 1018.93 1018.79 1018.61 1018.38 1018.10
Thickness
5742 5741 5740 5739 5738 5737 5736 5735 5735 5734 5733 5733 5732 5731 5730 5729 5727 5726 5725 5723 5722 5720 5719 5717 5716 5715 5714 5713 5712 5710 5709 5708 5706 5705 5703 5702 5701 5700 5699 5698 5697 5696 5695
5741 5740 5739 5738 5737 5737 5736 5735 5734 5734 5733 5732 5732 5731 5730 5729 5727 5726 5725 5723 5722 5720 5719 5718 5717 5715 5714 5713 5712 5711 5710 5708 5707 5705 5704 5703 5702 5701 5699 5698 5697 5696 5695
5740 5739 5738 5738 5737 5736 5735 5735 5734 5733 5732 5732 5731 5730 5729 5729 5727 5726 5725 5723 5722 5721 5720 5718 5717 5716 5715 5713 5712 5711 5710 5709 5707 5706 5705 5703 5702 5701 5700 5698 5697 5696 5695
5740 5738 5738 5737 5736 5735 5734 5734 5733 5732 5731 5730 5730 5729 5729 5728 5727 5726 5725 5724 5723 5722 5720 5719 5718 5717 5716 5715 5713 5712 5711 5710 5708 5707 5705 5704 5703 5701 5700 5699 5698 5697 5695
5739 5738 5737 5737 5736 5735 5734 5733 5732 5731 5729 5728 5728 5728 5728 5728 5727 5726 5725 5725 5724 5722 5721 5720 5720 5719 5718 5716 5715 5714 5712 5711 5709 5708 5706 5705 5703 5702 5701 5700 5699 5697 5696
5739 5738 5737 5736 5735 5734 5733 5732 5731 5730 5729 5728 5728 5727 5727 5727 5727 5727 5726 5725 5724 5724 5723 5722 5721 5720 5719 5718 5717 5715 5714 5712 5711 5709 5708 5706 5705 5703 5702 5701 5699 5698 5697
5740 5738 5738 5736 5735 5734 5733 5731 5730 5728 5727 5727 5724 5723 5725 5727 5727 5727 5727 5726 5725 5725 5724 5723 5722 5722 5721 5720 5719 5717 5716 5714 5713 5711 5709 5708 5707 5705 5704 5702 5701 5699 5698
5740 5739 5737 5736 5735 5733 5732 5731 5729 5727 5726 5726 5723 5718 5716 5719 5725 5728 5728 5727 5727 5726 5725 5725 5724 5723 5723 5722 5721 5719 5718 5716 5715 5713 5712 5710 5709 5707 5705 5703 5702 5701 5699
5741 5740 5738 5736 5735 5734 5732 5731 5730 5727 5725 5724 5724 5720 5714 5712 5718 5724 5727 5728 5728 5727 5727 5726 5726 5725 5725 5724 5723 5722 5720 5718 5717 5715 5714 5712 5711 5709 5707 5705 5703 5702 5701
5741 5740 5739 5737 5735 5734 5732 5732 5731 5729 5726 5723 5723 5723 5722 5721 5716 5716 5723 5726 5728 5728 5728 5728 5728 5727 5726 5725 5725 5724 5722 5721 5719 5717 5716 5714 5713 5711 5709 5707 5705 5703 5702
5741 5740 5739 5737 5736 5734 5734 5732 5731 5730 5728 5725 5723 5722 5720 5719 5718 5715 5715 5720 5724 5727 5728 5728 5728 5728 5728 5727 5726 5725 5724 5722 5721 5719 5717 5716 5714 5712 5710 5708 5706 5705 5703
5741 5741 5739 5737 5736 5735 5734 5732 5731 5730 5728 5727 5725 5724 5722 5719 5717 5716 5715 5716 5718 5724 5727 5728 5728 5728 5728 5728 5727 5727 5725 5724 5722 5720 5718 5717 5715 5713 5711 5709 5707 5705 5703
5740 5740 5739 5738 5737 5736 5734 5732 5731 5729 5728 5727 5725 5724 5724 5723 5722 5720 5717 5716 5716 5720 5724 5727 5728 5728 5728 5727 5727 5727 5725 5724 5722 5721 5718 5717 5715 5713 5711 5709 5707 5705 5703
5742 5741 5739 5738 5737 5736 5734 5732 5731 5729 5728 5727 5726 5725 5724 5724 5723 5722 5719 5716 5713 5715 5718 5722 5726 5727 5726 5726 5726 5725 5724 5723 5722 5720 5718 5716 5714 5712 5710 5709 5707 5704 5702
5743 5742 5740 5738 5737 5736 5734 5732 5730 5728 5727 5726 5725 5725 5724 5724 5723 5722 5721 5719 5714 5711 5714 5719 5721 5724 5723 5723 5724 5723 5722 5722 5720 5719 5717 5715 5712 5710 5708 5706 5704 5702 5700
5743 5741 5740 5738 5737 5735 5733 5731 5729 5728 5726 5725 5724 5723 5722 5722 5721 5721 5720 5718 5716 5713 5712 5717 5717 5719 5720 5720 5720 5719 5719 5718 5717 5715 5714 5712 5710 5708 5705 5703 5702 5699 5697
5742 5740 5739 5738 5736 5734 5732 5730 5728 5726 5725 5724 5723 5721 5720 5720 5719 5719 5718 5716 5714 5712 5710 5714 5714 5715 5715 5715 5715 5714 5713 5712 5711 5710 5709 5707 5706 5704 5702 5700 5698 5696 5693
5741 5739 5738 5736 5735 5733 5731 5728 5726 5725 5723 5721 5720 5719 5718 5717 5716 5715 5714 5713 5712 5711 5709 5708 5709 5709 5709 5709 5708 5708 5707 5706 5705 5704 5703 5701 5699 5698 5696 5695 5693 5691 5688
5739 5737 5736 5734 5733 5731 5729 5727 5725 5723 5722 5720 5719 5717 5717 5715 5714 5713 5711 5710 5709 5708 5706 5704 5703 5703 5702 5701 5700 5700 5699 5698 5698 5696 5695 5693 5691 5690 5688 5687 5685 5684 5682
5737 5735 5733 5732 5731 5729 5726 5724 5722 5721 5719 5718 5716 5715 5714 5713 5711 5710 5708 5706 5705 5703 5701 5699 5697 5696 5694 5693 5692 5690 5689 5688 5687 5686 5685 5683 5682 5680 5678 5677 5676 5674 5672
5733 5731 5730 5728 5727 5725 5723 5721 5719 5717 5715 5713 5712 5711 5710 5709 5708 5707 5705 5703 5701 5698 5696 5693 5690 5688 5686 5684 5683 5682 5680 5678 5676 5674 5674 5672 5671 5669 5666 5664 5663 5662 5661
5728 5726 5725 5723 5722 5720 5719 5717 5715 5712 5710 5708 5707 5706 5705 5704 5702 5701 5699 5697 5696 5693 5690 5687 5684 5681 5678 5676 5675 5673 5670 5668 5665 5663 5662 5660 5659 5657 5654 5652 5650 5650 5649
5722 5721 5719 5717 5715 5713 5712 5711 5709 5707 5704 5702 5700 5699 5698 5697 5695 5694 5691 5690 5687 5686 5684 5680 5676 5673 5670 5668 5666 5664 5661 5658 5654 5652 5650 5648 5646 5644 5642 5639 5638 5637 5636
5717 5714 5712 5710 5708 5706 5705 5703 5702 5699 5696 5694 5692 5691 5690 5688 5687 5685 5683 5680 5677 5675 5672 5669 5667 5664 5663 5660 5657 5655 5652 5648 5644 5640 5638 5635 5633 5631 5630 5627 5626 5624 5623
5710 5707 5704 5702 5700 5698 5696 5695 5694 5691 5687 5684 5683 5682 5681 5679 5677 5676 5675 5671 5667 5664 5661 5659 5656 5654 5652 5650 5648 5645 5641 5637 5633 5628 5624 5622 5620 5618 5617 5614 5612 5611 5609
5702 5699 5695 5693 5691 5689 5688 5687 5686 5683 5679 5675 5673 5671 5669 5668 5667 5666 5665 5661 5657 5653 5651 5648 5645 5642 5639 5637 5636 5633 5630 5626 5621 5616 5611 5608 5606 5603 5602 5600 5597 5596 5594